Flag for U.S.A. Weather past 2 weeks in Paradise, Nevada, U.S.A.

89 °F

Scattered clouds.

Feels Like: 85 °F
Forecast: 67 / 92 °F
Wind: No wind

Location: McCarran International Airport

Current Time: Oct 8, 2015 at 6:49:57 PM

Latest Report: Oct 8, 2015 at 5:56 PM

Visibility: 10 mi

Pressure: 29.91 "Hg (27.83 "Hg at 643m altitude)

Humidity: 18%

Dew point: 40 °F

Location of ParadiseLocation

Historic Weather in Paradise — Graph


Paradise temperature yesterday

Maximum temperature yesterday: 84 °F (at 3:56 PM)
Minimum temperature yesterday: 62 °F (at 5:56 AM)
Average temperature yesterday: 74 °F

Past Weeks' High & Low Weather Summary

High102 °F (Sep 24, 3:56 PM)96% (Oct 6, 1:56 AM)30.08 "Hg (Oct 6, 1:56 AM)
Low57 °F (Oct 5, 9:56 PM)9% (Oct 1, 2:56 PM)29.41 "Hg (Oct 3, 5:56 PM)
Average82 °F29%29.77 "Hg
* Reported Sep 23 4:56 PM — Oct 8 4:56 PM, Paradise, Weather by CustomWeather, © 2015

Note: Actual official high and low records may vary slightly from our data, if they occured in-between our weather recording intervals... More about our weather records


Paradise weather history for previous 24 hours

Time TempWeatherWind HumidityBarometerVisibility
4:56 PM
Thu, Oct 8
91 °FScattered clouds.8 mph16%29.90 "Hg10 mi
3:56 PM91 °FScattered clouds.3 mph16%29.91 "Hg10 mi
2:56 PM91 °FScattered clouds.10 mph16%29.93 "Hg10 mi
1:56 PM90 °FScattered clouds.10 mph16%29.96 "Hg10 mi
12:56 PM88 °FScattered clouds.5 mph17%29.99 "Hg10 mi
11:56 AM85 °FScattered clouds.5 mph20%30.03 "Hg10 mi
10:56 AM82 °FScattered clouds.3 mph26%30.04 "Hg10 mi
9:56 AM80 °FScattered clouds.No wind28%30.05 "Hg10 mi
8:56 AM76 °FBroken clouds.9 mph33%30.06 "Hg10 mi
7:56 AM70 °FMore clouds than sun.3 mph47%30.04 "Hg10 mi
6:56 AM68 °FPartly cloudy.5 mph51%30.02 "Hg10 mi
5:56 AM69 °FHigh level clouds.5 mph45%30.01 "Hg10 mi
4:56 AM69 °FHigh level clouds.6 mph44%30.00 "Hg10 mi
3:56 AM69 °FHigh level clouds.6 mph49%29.98 "Hg10 mi
2:56 AM69 °FPassing clouds.5 mph49%29.99 "Hg10 mi
1:56 AM70 °FPassing clouds.3 mph46%30.00 "Hg10 mi
12:56 AM72 °FPassing clouds.5 mph41%29.99 "Hg10 mi
11:56 PM
Wed, Oct 7
72 °FPassing clouds.5 mph44%29.99 "Hg10 mi
10:56 PM73 °FPassing clouds.7 mph44%30.00 "Hg10 mi
9:56 PM75 °FPassing clouds.No wind40%29.99 "Hg10 mi
8:56 PM76 °FPassing clouds.7 mph40%29.99 "Hg10 mi
7:56 PM79 °FPassing clouds.5 mph35%29.98 "Hg10 mi
6:56 PM81 °FPassing clouds.3 mph30%29.97 "Hg10 mi
Weather by CustomWeather, © 2015

See weather overviewHow to use our weather pages